"Period start","avg(HW err(1)/warn(2) (#))","avg(Visibility (m))","avg(Weather code (#))","avg(Precip intensity (mm/h))","min(HW err(1)/warn(2) (#))","max(HW err(1)/warn(2) (#))","std(HW err(1)/warn(2) (#))","med(HW err(1)/warn(2) (#))","min(Visibility (m))","max(Visibility (m))","std(Visibility (m))","med(Visibility (m))","min(Weather code (#))","max(Weather code (#))","std(Weather code (#))","med(Weather code (#))","min(Precip intensity (mm/h))","max(Precip intensity (mm/h))","std(Precip intensity (mm/h))","med(Precip intensity (mm/h))"
2014-11-05 00:00:00,1,,,,1,1,0,1,,,,,,,,,,,,
2014-11-05 00:10:00,1,,,,1,1,0,1,,,,,,,,,,,,
2014-11-05 00:20:00,1,,,,1,1,0,1,,,,,,,,,,,,
2014-11-05 00:30:00,1,,,,1,1,0,1,,,,,,,,,,,,
2014-11-05 00:40:00,2,7736,78,0.04,1,2,0,2,5283,10590,1697,7719,78,78,0,78,0.00,0.05,0.02,0.05
2014-11-05 00:50:00,2,18945,44,0.07,2,2,0,2,3642,38244,13400,16960,0,78,36,71,0.00,0.35,0.11,0.00
2014-11-05 01:00:00,1,13613,76,0.03,1,2,0,1,0,19671,7923,17391,71,78,3,78,0.00,0.05,0.03,0.03
2014-11-05 01:10:00,1,,,,1,1,0,1,,,,,,,,,,,,
2014-11-05 01:20:00,1,,,,1,1,0,1,,,,,,,,,,,,
2014-11-05 01:30:00,1,,,,1,1,0,1,,,,,,,,,,,,
2014-11-05 01:40:00,1,,,,1,1,0,1,,,,,,,,,,,,
2014-11-05 01:50:00,1,,,,1,1,0,1,,,,,,,,,,,,
2014-11-05 02:00:00,1,,,,1,1,0,1,,,,,,,,,,,,
2014-11-05 02:10:00,1,,,,1,1,0,1,,,,,,,,,,,,
2014-11-05 02:20:00,1,,,,1,1,0,1,,,,,,,,,,,,
2014-11-05 02:30:00,1,,,,1,1,0,1,,,,,,,,,,,,
2014-11-05 02:40:00,1,,,,1,1,0,1,,,,,,,,,,,,
2014-11-05 02:50:00,1,,,,1,1,0,1,,,,,,,,,,,,
2014-11-05 03:00:00,1,,,,1,1,0,1,,,,,,,,,,,,
2014-11-05 03:10:00,1,,,,1,1,0,1,,,,,,,,,,,,
2014-11-05 03:20:00,1,,,,1,1,0,1,,,,,,,,,,,,
2014-11-05 03:30:00,1,,,,1,1,0,1,,,,,,,,,,,,
2014-11-05 03:40:00,1,,,,1,1,0,1,,,,,,,,,,,,
2014-11-05 03:50:00,1,,,,1,1,0,1,,,,,,,,,,,,
2014-11-05 04:00:00,1,,,,1,1,0,1,,,,,,,,,,,,
2014-11-05 04:10:00,1,,,,1,1,0,1,,,,,,,,,,,,
2014-11-05 04:20:00,1,,,,1,1,0,1,,,,,,,,,,,,
2014-11-05 04:30:00,2,33557,,0.00,1,2,0,2,0,50000,18772,40780,,,,,0.00,0.00,0.00,0.00
2014-11-05 04:40:00,2,46498,0,0.00,2,2,0,2,36413,50000,3891,46509,0,0,0,0,0.00,0.00,0.00,0.00
2014-11-05 04:50:00,2,49029,0,0.00,2,2,0,2,45377,50000,1472,49804,0,0,0,0,0.00,0.00,0.00,0.00
2014-11-05 05:00:00,2,49522,0,0.00,2,2,0,2,45483,50000,1349,50000,0,0,0,0,0.00,0.00,0.00,0.00
2014-11-05 05:10:00,2,33216,0,0.00,1,2,0,2,0,50000,23490,50000,0,0,0,0,0.00,0.00,0.00,0.00
2014-11-05 05:20:00,1,,,,1,1,0,1,,,,,,,,,,,,
2014-11-05 05:30:00,1,,,,1,1,0,1,,,,,,,,,,,,
2014-11-05 05:40:00,1,,,,1,1,0,1,,,,,,,,,,,,
2014-11-05 05:50:00,1,,,,1,1,0,1,,,,,,,,,,,,
2014-11-05 06:00:00,1,,,,1,1,0,1,,,,,,,,,,,,
2014-11-05 06:10:00,1,,,,1,1,0,1,,,,,,,,,,,,
2014-11-05 06:20:00,1,,,,1,1,0,1,,,,,,,,,,,,
2014-11-05 06:30:00,1,25000,,0.00,1,2,0,1,0,50000,25000,25000,,,,,0.00,0.00,0.00,0.00
2014-11-05 06:40:00,1,50000,,0.00,1,2,0,1,50000,50000,0,50000,,,,,0.00,0.00,0.00,0.00
2014-11-05 06:50:00,1,,,,1,1,0,1,,,,,,,,,,,,
2014-11-05 07:00:00,1,,,,1,1,0,1,,,,,,,,,,,,
2014-11-05 07:10:00,1,,,,1,1,0,1,,,,,,,,,,,,
2014-11-05 07:20:00,1,,,,1,1,0,1,,,,,,,,,,,,
2014-11-05 07:30:00,1,,,,1,1,0,1,,,,,,,,,,,,
2014-11-05 07:40:00,1,,,,1,1,0,1,,,,,,,,,,,,
2014-11-05 07:50:00,1,,,,1,1,0,1,,,,,,,,,,,,
2014-11-05 08:00:00,1,,,,1,1,0,1,,,,,,,,,,,,
2014-11-05 08:10:00,1,,,,1,1,0,1,,,,,,,,,,,,
2014-11-05 08:20:00,1,,,,1,1,0,1,,,,,,,,,,,,
2014-11-05 08:30:00,1,,,,1,1,0,1,,,,,,,,,,,,
2014-11-05 08:40:00,1,,,,1,1,0,1,,,,,,,,,,,,
2014-11-05 08:50:00,1,,,,1,1,0,1,,,,,,,,,,,,
2014-11-05 09:00:00,1,,,,1,1,0,1,,,,,,,,,,,,
2014-11-05 09:10:00,1,,,,1,1,0,1,,,,,,,,,,,,
2014-11-05 09:20:00,1,,,,1,1,0,1,,,,,,,,,,,,
2014-11-05 09:30:00,1,,,,1,1,0,1,,,,,,,,,,,,
2014-11-05 09:40:00,2,30000,,0.00,1,2,0,2,0,50000,24495,50000,,,,,0.00,0.00,0.00,0.00
2014-11-05 09:50:00,2,50000,0,0.00,1,2,0,2,50000,50000,0,50000,0,0,0,0,0.00,0.00,0.00,0.00
2014-11-05 10:00:00,1,25000,0,0.00,1,2,0,1,0,50000,25000,25000,0,0,0,0,0.00,0.00,0.00,0.00
2014-11-05 10:10:00,1,16667,,0.00,1,2,0,1,0,50000,23570,0,,,,,0.00,0.00,0.00,0.00
2014-11-05 10:20:00,1,25000,,0.00,1,2,0,1,0,50000,25000,25000,,,,,0.00,0.00,0.00,0.00
2014-11-05 10:30:00,2,50000,0,0.00,2,2,0,2,50000,50000,0,50000,0,0,0,0,0.00,0.00,0.00,0.00
2014-11-05 10:40:00,2,50000,0,0.00,2,2,0,2,50000,50000,0,50000,0,0,0,0,0.00,0.00,0.00,0.00
2014-11-05 10:50:00,1,12500,0,0.00,1,2,0,1,0,50000,21651,0,0,0,0,0,0.00,0.00,0.00,0.00
2014-11-05 11:00:00,1,,,,1,1,0,1,,,,,,,,,,,,
2014-11-05 11:10:00,1,0,,0.00,1,2,0,1,0,0,0,0,,,,,0.00,0.00,0.00,0.00
2014-11-05 11:20:00,2,30000,,0.00,1,2,0,2,0,50000,24495,50000,,,,,0.00,0.00,0.00,0.00
2014-11-05 11:30:00,2,50000,0,0.00,2,2,0,2,50000,50000,0,50000,0,0,0,0,0.00,0.00,0.00,0.00
2014-11-05 11:40:00,2,50000,0,0.00,2,2,0,2,50000,50000,0,50000,0,0,0,0,0.00,0.00,0.00,0.00
2014-11-05 11:50:00,2,50000,0,0.00,2,2,0,2,50000,50000,0,50000,0,0,0,0,0.00,0.00,0.00,0.00
2014-11-05 12:00:00,2,50000,0,0.00,2,2,0,2,50000,50000,0,50000,0,0,0,0,0.00,0.00,0.00,0.00
2014-11-05 12:10:00,2,50000,0,0.00,2,2,0,2,50000,50000,0,50000,0,0,0,0,0.00,0.00,0.00,0.00
2014-11-05 12:20:00,2,50000,0,0.00,2,2,0,2,50000,50000,0,50000,0,0,0,0,0.00,0.00,0.00,0.00
2014-11-05 12:30:00,2,28905,0,0.00,2,2,0,2,3495,50000,16825,28054,0,0,0,0,0.00,0.00,0.00,0.00
2014-11-05 12:40:00,2,2142,48,0.01,2,2,0,2,1464,3412,630,1953,0,77,33,71,0.00,0.05,0.02,0.00
2014-11-05 12:50:00,2,23912,23,0.00,2,2,0,2,8275,38382,9292,23146,10,77,27,10,0.00,0.00,0.00,0.00
2014-11-05 13:00:00,2,3092,19,0.01,2,2,0,2,1408,9565,2331,2406,0,71,26,10,0.00,0.10,0.03,0.00
2014-11-05 13:10:00,2,5325,44,0.00,2,2,0,2,2152,10141,2358,5120,10,77,34,44,0.00,0.00,0.00,0.00
2014-11-05 13:20:00,2,31716,10,0.00,2,2,0,2,5456,50000,16687,33014,10,10,0,10,0.00,0.00,0.00,0.00
2014-11-05 13:30:00,2,42688,0,0.00,2,2,0,2,26779,50000,8196,44915,0,0,0,0,0.00,0.00,0.00,0.00
2014-11-05 13:40:00,2,48859,0,0.00,2,2,0,2,43966,50000,1991,50000,0,0,0,0,0.00,0.00,0.00,0.00
2014-11-05 13:50:00,2,50000,0,0.00,2,2,0,2,50000,50000,0,50000,0,0,0,0,0.00,0.00,0.00,0.00
2014-11-05 14:00:00,2,50000,0,0.00,2,2,0,2,50000,50000,0,50000,0,0,0,0,0.00,0.00,0.00,0.00
2014-11-05 14:10:00,2,50000,0,0.00,2,2,0,2,50000,50000,0,50000,0,0,0,0,0.00,0.00,0.00,0.00
2014-11-05 14:20:00,2,49450,0,0.00,2,2,0,2,46971,50000,1032,50000,0,0,0,0,0.00,0.00,0.00,0.00
2014-11-05 14:30:00,2,25828,43,0.02,2,2,0,2,16562,44066,9312,20698,0,71,35,71,0.00,0.05,0.02,0.00
2014-11-05 14:40:00,2,21014,76,0.01,2,2,0,2,16445,35708,5611,18797,71,78,2,77,0.00,0.05,0.02,0.00
2014-11-05 14:50:00,2,39002,78,0.00,2,2,0,2,31922,48397,4991,38607,77,78,0,78,0.00,0.00,0.00,0.00
2014-11-05 15:00:00,2,19586,78,0.00,2,2,0,2,8976,31555,7893,17084,77,78,0,78,0.00,0.00,0.00,0.00
2014-11-05 15:10:00,2,5079,48,0.02,2,2,0,2,1258,11397,3666,4240,0,77,33,71,0.00,0.10,0.03,0.00
2014-11-05 15:20:00,2,3759,77,0.01,2,2,0,2,1675,5594,1318,3577,77,77,0,77,0.00,0.05,0.02,0.00
2014-11-05 15:30:00,2,4437,77,0.01,2,2,0,2,1816,6388,1530,4492,77,77,0,77,0.00,0.05,0.02,0.00
2014-11-05 15:40:00,2,3505,77,0.01,2,2,0,2,2060,5055,859,3342,77,77,0,77,0.00,0.05,0.02,0.00
2014-11-05 15:50:00,2,2679,77,0.03,2,2,0,2,1721,3557,550,2622,77,77,0,77,0.00,0.05,0.03,0.03
2014-11-05 16:00:00,2,1738,77,0.06,2,2,0,2,1255,2427,411,1674,77,77,0,77,0.05,0.10,0.02,0.05
2014-11-05 16:10:00,2,2322,77,0.03,2,2,0,2,1621,3315,497,2284,77,77,0,77,0.00,0.05,0.02,0.05
2014-11-05 16:20:00,2,2488,77,0.03,2,2,0,2,1161,3586,908,2714,77,77,0,77,0.00,0.05,0.03,0.03
2014-11-05 16:30:00,2,4110,77,0.03,2,2,0,2,2364,6258,1203,3746,77,77,0,77,0.00,0.05,0.03,0.03
2014-11-05 16:40:00,2,4183,77,0.01,2,2,0,2,2788,5617,868,4240,77,77,0,77,0.00,0.05,0.02,0.00
2014-11-05 16:50:00,2,4299,77,0.04,2,2,0,2,1687,6774,1644,4164,77,77,0,77,0.00,0.05,0.02,0.05
2014-11-05 17:00:00,2,2243,77,0.03,2,2,0,2,1451,2870,384,2226,77,77,0,77,0.00,0.05,0.03,0.03
2014-11-05 17:10:00,2,2621,77,0.04,2,2,0,2,1872,3223,436,2714,77,77,0,77,0.00,0.05,0.02,0.05
2014-11-05 17:20:00,2,5230,77,0.01,2,2,0,2,2685,9662,2049,5093,77,77,0,77,0.00,0.05,0.02,0.00
2014-11-05 17:30:00,2,4197,17,0.00,2,2,0,2,2251,7098,1645,3570,10,77,20,10,0.00,0.00,0.00,0.00
2014-11-05 17:40:00,2,3873,10,0.00,2,2,0,2,2861,7456,1479,3147,10,10,0,10,0.00,0.00,0.00,0.00
2014-11-05 17:50:00,2,3820,10,0.00,2,2,0,2,1632,5460,1116,3457,10,10,0,10,0.00,0.00,0.00,0.00
2014-11-05 18:00:00,2,7984,10,0.00,2,2,0,2,4471,13193,3064,7969,10,10,0,10,0.00,0.00,0.00,0.00
2014-11-05 18:10:00,2,7960,10,0.00,2,2,0,2,3622,13771,3000,8064,10,10,0,10,0.00,0.00,0.00,0.00
2014-11-05 18:20:00,2,4247,10,0.00,2,2,0,2,2773,6633,1023,4284,10,10,0,10,0.00,0.00,0.00,0.00
2014-11-05 18:30:00,2,6054,10,0.00,2,2,0,2,3933,8634,1583,6104,10,10,0,10,0.00,0.00,0.00,0.00
2014-11-05 18:40:00,2,9352,10,0.00,2,2,0,2,5614,13307,2629,9512,10,10,0,10,0.00,0.00,0.00,0.00
2014-11-05 18:50:00,2,14137,6,0.00,2,2,0,2,8667,23628,4794,12682,0,10,5,10,0.00,0.00,0.00,0.00
2014-11-05 19:00:00,2,9545,0,0.00,2,2,0,2,5902,12855,2068,9957,0,0,0,0,0.00,0.00,0.00,0.00
2014-11-05 19:10:00,2,10763,0,0.00,2,2,0,2,7296,15190,2561,10626,0,0,0,0,0.00,0.00,0.00,0.00
2014-11-05 19:20:00,2,17272,0,0.00,2,2,0,2,7852,27041,5032,17271,0,0,0,0,0.00,0.00,0.00,0.00
2014-11-05 19:30:00,2,22299,0,0.00,2,2,0,2,17225,27521,3247,22217,0,0,0,0,0.00,0.00,0.00,0.00
2014-11-05 19:40:00,2,21312,0,0.00,2,2,0,2,16701,26773,2938,21426,0,0,0,0,0.00,0.00,0.00,0.00
2014-11-05 19:50:00,2,11348,0,0.00,2,2,0,2,7423,14200,2228,11929,0,0,0,0,0.00,0.00,0.00,0.00
2014-11-05 20:00:00,2,8084,53,0.00,2,2,0,2,7061,9643,831,8034,0,78,35,74,0.00,0.00,0.00,0.00
2014-11-05 20:10:00,2,5798,77,0.00,2,2,0,2,2730,9507,2248,5521,77,77,0,77,0.00,0.00,0.00,0.00
2014-11-05 20:20:00,2,9956,50,0.00,2,2,0,2,6823,16433,2764,9832,10,77,33,77,0.00,0.00,0.00,0.00
2014-11-05 20:30:00,2,14358,6,0.00,2,2,0,2,11142,16682,1657,14347,0,10,5,10,0.00,0.00,0.00,0.00
2014-11-05 20:40:00,2,11027,0,0.00,2,2,0,2,5210,14087,2731,11074,0,0,0,0,0.00,0.00,0.00,0.00
2014-11-05 20:50:00,2,6990,8,0.00,2,2,0,2,4496,10605,1906,6758,0,10,4,10,0.00,0.00,0.00,0.00
2014-11-05 21:00:00,2,8061,10,0.00,2,2,0,2,4503,11126,1572,8184,10,10,0,10,0.00,0.00,0.00,0.00
2014-11-05 21:10:00,2,9379,10,0.00,2,2,0,2,5814,12156,2160,10255,10,10,0,10,0.00,0.00,0.00,0.00
2014-11-05 21:20:00,2,7232,10,0.00,2,2,0,2,3140,11404,2135,7276,10,10,0,10,0.00,0.00,0.00,0.00
2014-11-05 21:30:00,2,13308,10,0.00,2,2,0,2,6682,24482,5041,12624,10,10,0,10,0.00,0.00,0.00,0.00
2014-11-05 21:40:00,2,12676,1,0.00,2,2,0,2,6133,19221,4074,13320,0,10,3,0,0.00,0.00,0.00,0.00
2014-11-05 21:50:00,2,5038,8,0.00,2,2,0,2,2406,6882,1391,5245,0,10,4,10,0.00,0.00,0.00,0.00
2014-11-05 22:00:00,2,6241,10,0.00,2,2,0,2,3864,10613,1928,5919,10,10,0,10,0.00,0.00,0.00,0.00
2014-11-05 22:10:00,2,4063,10,0.00,2,2,0,2,2421,7060,1259,3800,10,10,0,10,0.00,0.00,0.00,0.00
2014-11-05 22:20:00,2,11234,10,0.00,2,2,0,2,3197,30128,8897,6452,10,10,0,10,0.00,0.00,0.00,0.00
2014-11-05 22:30:00,2,4400,29,0.00,2,2,0,2,2286,6495,1431,4610,10,78,29,10,0.00,0.00,0.00,0.00
2014-11-05 22:40:00,2,6622,10,0.00,2,2,0,2,3989,9227,1656,6694,10,10,0,10,0.00,0.00,0.00,0.00
2014-11-05 22:50:00,2,8708,10,0.00,2,2,0,2,5833,13912,2491,7966,10,10,0,10,0.00,0.00,0.00,0.00
2014-11-05 23:00:00,2,11456,10,0.00,2,2,0,2,4904,27397,6493,10259,10,10,0,10,0.00,0.00,0.00,0.00
2014-11-05 23:10:00,2,13635,8,0.00,2,2,0,2,6813,20382,4015,13574,0,10,4,10,0.00,0.00,0.00,0.00
2014-11-05 23:20:00,2,20379,0,0.00,2,2,0,2,5310,38511,9015,19132,0,0,0,0,0.00,0.00,0.00,0.00
2014-11-05 23:30:00,2,6689,5,0.00,2,2,0,2,3318,10438,2468,6624,0,10,5,5,0.00,0.00,0.00,0.00
2014-11-05 23:40:00,2,19263,10,0.00,2,2,0,2,11741,29086,5466,18169,10,10,0,10,0.00,0.00,0.00,0.00
2014-11-05 23:50:00,2,17401,0,0.00,2,2,0,2,7266,31628,8757,13714,0,0,0,0,0.00,0.00,0.00,0.00
